sat.trackr.live / text

‹ back to catalog

STARLINK-37109

NORAD 68666 · 2026-077E

PAYLOAD ACTIVE UNKNOWN

§ Identity

Operator
Country
US
Launch date
2026-04-11
Launch site
AFWTR
Launch vehicle
Mass (kg)
RCS (m²)

Purposes: comms

External: N2YO · Heavens-Above · Gunter

§ Orbital elements

Epoch: 2026-05-25T03:36:52.917408Z

Period
93.91 min
Inclination
97.2859°
Eccentricity
0.0002148
Mean motion
15.33450642 rev/d
Perigee alt
464.1 km
Apogee alt
467.0 km
Semi-major
6,843.7 km
B*
5.7136e-4
RAAN
16.6935°
Arg perigee
95.0248°
Mean anomaly
265.1240°
Rev number
687

§ Raw data

STARLINK-371091 68666U 26077E   26145.15061247  .00018420  00000+0  57136-3 0  99972 68666  97.2859  16.6935 0002148  95.0248 265.1240 15.33450642  6871

JSON: /api/v1/satellites/68666 · /tle

For live sub-satellite position, see the globe view (requires WebGL).

§ Visibility from observer

Set your observer location to see the next 7 days of passes ≥ 10°. The values pass through the URL so the page stays shareable.

No JS? Fill the form by hand. The geolocation button needs JavaScript.